TimeEST,TemperatureF,Dew PointF,Humidity,Sea Level PressureIn,VisibilityMPH,Wind Direction,Wind SpeedMPH,Gust SpeedMPH,PrecipitationIn,Events,Conditions,WindDirDegrees,DateUTC
12:53 AM,64.9,63.0,93,30.01,10.0,NW,6.9,-,N/A,,Mostly Cloudy,310,2013-01-22 05:53:00
1:53 AM,64.9,62.1,90,30.01,10.0,NW,9.2,-,N/A,,Overcast,320,2013-01-22 06:53:00
2:53 AM,64.9,62.1,90,30.01,10.0,NW,10.4,-,N/A,,Mostly Cloudy,320,2013-01-22 07:53:00
3:00 AM,64.4,62.6,94,30.00,10.0,NW,9.2,-,N/A,,Mostly Cloudy,320,2013-01-22 08:00:00
3:23 AM,64.4,60.8,88,30.00,10.0,NW,8.1,-,N/A,,Mostly Cloudy,320,2013-01-22 08:23:00
3:53 AM,64.0,60.1,87,30.00,10.0,NW,8.1,-,N/A,,Mostly Cloudy,320,2013-01-22 08:53:00
4:53 AM,63.0,60.1,90,30.01,10.0,NW,10.4,-,N/A,,Mostly Cloudy,310,2013-01-22 09:53:00
5:53 AM,63.0,59.0,87,30.04,10.0,NW,8.1,-,N/A,,Mostly Cloudy,320,2013-01-22 10:53:00
6:53 AM,62.1,57.9,86,30.06,10.0,NW,8.1,-,N/A,,Mostly Cloudy,310,2013-01-22 11:53:00
7:53 AM,62.1,57.9,86,30.08,10.0,NW,10.4,-,N/A,,Mostly Cloudy,320,2013-01-22 12:53:00
8:53 AM,64.9,57.9,78,30.10,10.0,NNW,10.4,-,N/A,,Mostly Cloudy,330,2013-01-22 13:53:00
9:53 AM,69.1,57.9,68,30.12,10.0,NNW,9.2,-,N/A,,Mostly Cloudy,340,2013-01-22 14:53:00
10:53 AM,73.0,57.9,59,30.13,10.0,North,12.7,-,N/A,,Mostly Cloudy,350,2013-01-22 15:53:00
11:53 AM,75.0,57.0,53,30.12,10.0,North,13.8,-,N/A,,Mostly Cloudy,350,2013-01-22 16:53:00
12:53 PM,75.9,55.0,48,30.10,10.0,North,17.3,23.0,N/A,,Mostly Cloudy,350,2013-01-22 17:53:00
1:53 PM,75.0,57.9,55,30.09,10.0,North,16.1,25.3,N/A,,Mostly Cloudy,360,2013-01-22 18:53:00
2:53 PM,73.9,55.9,53,30.09,10.0,NNW,23.0,27.6,N/A,,Mostly Cloudy,340,2013-01-22 19:53:00
3:53 PM,73.9,55.9,53,30.11,10.0,North,18.4,-,N/A,,Mostly Cloudy,350,2013-01-22 20:53:00
4:53 PM,72.0,54.0,53,30.13,10.0,NNE,15.0,25.3,N/A,,Mostly Cloudy,20,2013-01-22 21:53:00
5:53 PM,70.0,51.1,51,30.15,10.0,NNE,12.7,20.7,N/A,,Mostly Cloudy,20,2013-01-22 22:53:00
6:53 PM,70.0,51.1,51,30.16,10.0,NNE,15.0,21.9,N/A,,Mostly Cloudy,20,2013-01-22 23:53:00
7:53 PM,70.0,51.1,51,30.18,10.0,NNE,8.1,-,N/A,,Mostly Cloudy,30,2013-01-23 00:53:00
8:53 PM,69.1,51.1,53,30.19,10.0,NNE,12.7,-,N/A,,Scattered Clouds,30,2013-01-23 01:53:00
9:53 PM,69.1,50.0,51,30.22,10.0,NNE,11.5,-,N/A,,Scattered Clouds,30,2013-01-23 02:53:00
10:53 PM,69.1,48.9,49,30.22,10.0,NNE,15.0,23.0,N/A,,Scattered Clouds,30,2013-01-23 03:53:00
11:53 PM,68.0,50.0,52,30.21,10.0,NE,11.5,-,N/A,,Mostly Cloudy,40,2013-01-23 04:53:00